カタリナ彗星

300P/Catalina (2023)

English version
Home page
Updated on January 4, 2024

---------------------------------------------------------------------

・ プロフィール

・ 写真集

・ 軌道要素

Epoch 2023 Feb. 25.0 TT = JDT 2460000.5
T 2023 Apr. 11.11381 TT                                 Rudenko
q   0.8320728            (2000.0)            P               Q
n   0.22232959     Peri.  222.95283     +0.74652278     +0.65804449
a   2.6985960      Node    95.62414     -0.58052068     +0.71643172
e   0.6916646      Incl.    5.67404     -0.32511455     +0.23173916
P   4.43
>From 787 observations 2005 May 6-2023 Mar. 16, mean residual 0".8.
     Nongravitational parameters A1 = +0.04, A2 = -0.0078.

・ 星図

・ 光度変化

        H = 17.5  G = 0.15                [   ,-80]  (              〜2023年 1月21日)
        m1 = 16.0 + 5 logΔ + 23.0 log r  [-80, 76]  (2023年 1月21日〜2023年 6月26日)
        H = 17.5  G = 0.15                [ 76,   ]  (2023年 6月26日〜              )

---------------------------------------------------------------------

軌道要素はM.P.E.C. 2023-F81に掲載されたものです。
星図はステラナビゲータ Ver.10 (アストロアーツ) で作成したものです。
光度グラフはComet for Windowsで作成したものです。

---------------------------------------------------------------------

Copyright(C) Seiichi Yoshida (comet@aerith.net). All rights reserved.